Stations météo

réclame
Mon MeteoGroup
Bari Palese, Italie (16270): Température de l'air & dewpoint: 11.12.2017 22:00:00 - 17.12.2017 22:00:00 (CET)Bari Palese, Italie (16270): Vitesse du vent: 11.12.2017 22:00:00 - 17.12.2017 22:00:00 (CET)Bari Palese, Italie (16270): Direction du vent: 11.12.2017 22:00:00 - 17.12.2017 22:00:00 (CET)Bari Palese, Italie (16270): reduced air pressure: 11.12.2017 22:00:00 - 17.12.2017 22:00:00 (CET)Bari Palese, Italie (16270): visibility: 11.12.2017 22:00:00 - 17.12.2017 22:00:00 (CET)Bari Palese, Italie (16270): Quantités de précipitations: 11.12.2017 22:00:00 - 17.12.2017 22:00:00 (CET)
Date & Time tt [°C] td [°C] ff [km/h] ff [knt] dd ppp [hPa] vv [km] rr [mm]
17.12.2017 22:00:00 - - - - - - - -
17.12.2017 21:00:00 - - - - - - - -
17.12.2017 20:00:00 - - - - - - - -
17.12.2017 19:00:00 6,8 4,0 22 12 NW 1015,6 16 0,0
17.12.2017 18:00:00 - - - - - - - -
17.12.2017 17:00:00 - - - - - - - -
17.12.2017 16:00:00 7,6 5,5 31 17 WNW 1012,8 16 -
17.12.2017 15:00:00 - - - - - - - -
17.12.2017 14:00:00 - - - - - - - -
17.12.2017 13:00:00 9,6 3,7 34 18 WNW 1011,6 16 0,0
17.12.2017 12:00:00 - - - - - - - -
17.12.2017 11:00:00 - - - - - - - -
17.12.2017 10:00:00 8,3 3,3 24 13 W 1012,0 16 -
17.12.2017 09:00:00 - - - - - - - -
17.12.2017 08:00:00 - - - - - - - -
17.12.2017 07:00:00 5,6 2,4 9 5 W 1010,8 16 0,0
17.12.2017 06:00:00 - - - - - - - -
17.12.2017 05:00:00 - - - - - - - -
17.12.2017 04:00:00 5,0 2,1 11 6 SW 1009,5 16 -
17.12.2017 03:00:00 - - - - - - - -
17.12.2017 02:00:00 - - - - - - - -
17.12.2017 01:00:00 7,5 3,8 2 1 SW 1009,0 16 0,0
17.12.2017 00:00:00 - - - - - - - -
16.12.2017 23:00:00 - - - - - - - -
16.12.2017 22:00:00 9,7 4,2 15 8 W 1008,8 15 -
16.12.2017 21:00:00 - - - - - - - -
16.12.2017 20:00:00 - - - - - - - -
16.12.2017 19:00:00 9,6 4,5 8 4 SW 1007,5 15 0,0
16.12.2017 18:00:00 - - - - - - - -
16.12.2017 17:00:00 - - - - - - - -
16.12.2017 16:00:00 10,3 5,2 11 6 SSW 1006,8 15 -
16.12.2017 15:00:00 - - - - - - - -
16.12.2017 14:00:00 - - - - - - - -
16.12.2017 13:00:00 10,7 5,1 8 4 SW 1006,8 15 0,0
16.12.2017 12:00:00 - - - - - - - -
16.12.2017 11:00:00 - - - - - - - -
16.12.2017 10:00:00 12,3 3,0 13 7 W 1007,0 17 -
16.12.2017 09:00:00 - - - - - - - -
16.12.2017 08:00:00 - - - - - - - -
16.12.2017 07:00:00 9,8 6,9 8 4 W 1005,6 14 0,0
16.12.2017 06:00:00 - - - - - - - -
16.12.2017 05:00:00 - - - - - - - -
16.12.2017 04:00:00 11,5 10,4 4 2 SW 1002,5 14 -
16.12.2017 03:00:00 - - - - - - - -
16.12.2017 02:00:00 - - - - - - - -
16.12.2017 01:00:00 13,4 4,5 8 4 SSW 1001,4 14 0,0
16.12.2017 00:00:00 - - - - - - - -
15.12.2017 23:00:00 - - - - - - - -
15.12.2017 22:00:00 14,1 3,4 11 6 S 1002,1 14 -
15.12.2017 21:00:00 - - - - - - - -
15.12.2017 20:00:00 - - - - - - - -
15.12.2017 19:00:00 14,3 4,6 22 12 S 1003,1 14 0,0
15.12.2017 18:00:00 - - - - - - - -
15.12.2017 17:00:00 - - - - - - - -
15.12.2017 16:00:00 - - - - - - - -
15.12.2017 15:00:00 - - - - - - - -
15.12.2017 14:00:00 - - - - - - - -
15.12.2017 13:00:00 14,7 8,0 5 3 S 1006,6 15 0,0
15.12.2017 12:00:00 - - - - - - - -
15.12.2017 11:00:00 - - - - - - - -
15.12.2017 10:00:00 14,3 8,8 21 11 SSW 1008,7 15 -
15.12.2017 09:00:00 - - - - - - - -
15.12.2017 08:00:00 - - - - - - - -
15.12.2017 07:00:00 14,4 9,0 11 6 SSW 1009,7 15 0,0
15.12.2017 06:00:00 - - - - - - - -
15.12.2017 05:00:00 - - - - - - - -
15.12.2017 04:00:00 11,6 8,5 9 5 SSW 1009,7 15 -
15.12.2017 03:00:00 - - - - - - - -
15.12.2017 02:00:00 - - - - - - - -
15.12.2017 01:00:00 11,6 8,2 9 5 S 1011,7 25 0,0
15.12.2017 00:00:00 - - - - - - - -
14.12.2017 23:00:00 - - - - - - - -
14.12.2017 22:00:00 11,2 5,8 9 5 S 1013,2 25 -
14.12.2017 21:00:00 - - - - - - - -
14.12.2017 20:00:00 - - - - - - - -
14.12.2017 19:00:00 12,3 5,6 9 5 SSW 1014,5 15 0,0
14.12.2017 18:00:00 - - - - - - - -
14.12.2017 17:00:00 - - - - - - - -
14.12.2017 16:00:00 13,6 5,1 9 5 SSW 1014,3 13 -
14.12.2017 15:00:00 - - - - - - - -
14.12.2017 14:00:00 - - - - - - - -
14.12.2017 13:00:00 14,3 6,2 15 8 W 1014,6 13 0,0
14.12.2017 12:00:00 - - - - - - - -
14.12.2017 11:00:00 - - - - - - - -
14.12.2017 10:00:00 13,1 5,6 21 11 W 1016,1 13 -
14.12.2017 09:00:00 - - - - - - - -
14.12.2017 08:00:00 - - - - - - - -
14.12.2017 07:00:00 8,0 3,1 11 6 SW 1016,0 10 0,0
14.12.2017 06:00:00 - - - - - - - -
14.12.2017 05:00:00 - - - - - - - -
14.12.2017 04:00:00 5,6 2,5 13 7 SW 1016,8 10 -
14.12.2017 03:00:00 - - - - - - - -
14.12.2017 02:00:00 - - - - - - - -
14.12.2017 01:00:00 6,3 4,5 9 5 WSW 1017,5 9 0,0
14.12.2017 00:00:00 - - - - - - - -
13.12.2017 23:00:00 - - - - - - - -
13.12.2017 22:00:00 9,5 6,0 11 6 WSW 1017,7 9 -
13.12.2017 21:00:00 - - - - - - - -
13.12.2017 20:00:00 - - - - - - - -
13.12.2017 19:00:00 11,1 8,5 13 7 WSW 1017,5 9 -
13.12.2017 18:00:00 - - - - - - - -
13.12.2017 17:00:00 - - - - - - - -
13.12.2017 16:00:00 11,3 10,1 8 4 SE 1017,7 15 -
13.12.2017 15:00:00 - - - - - - - -
13.12.2017 14:00:00 - - - - - - - -
13.12.2017 13:00:00 14,7 9,5 16 9 NW 1018,2 15 0,0
13.12.2017 12:00:00 - - - - - - - -
13.12.2017 11:00:00 - - - - - - - -
13.12.2017 10:00:00 14,4 6,5 11 6 SW 1018,9 20 -
13.12.2017 09:00:00 - - - - - - - -
13.12.2017 08:00:00 - - - - - - - -
13.12.2017 07:00:00 13,8 7,1 16 9 WSW 1018,8 20 0,0
13.12.2017 06:00:00 - - - - - - - -
13.12.2017 05:00:00 - - - - - - - -
13.12.2017 04:00:00 11,3 6,4 11 6 SW 1017,8 25 -
13.12.2017 03:00:00 - - - - - - - -
13.12.2017 02:00:00 - - - - - - - -
13.12.2017 01:00:00 11,7 6,4 9 5 SSW 1018,2 25 0,0
13.12.2017 00:00:00 - - - - - - - -
12.12.2017 23:00:00 - - - - - - - -
12.12.2017 22:00:00 11,8 7,3 9 5 SSW 1018,5 25 -
12.12.2017 21:00:00 - - - - - - - -
12.12.2017 20:00:00 - - - - - - - -
12.12.2017 19:00:00 13,4 8,2 11 6 SSW 1017,5 25 0,0
12.12.2017 18:00:00 - - - - - - - -
12.12.2017 17:00:00 - - - - - - - -
12.12.2017 16:00:00 16,5 9,3 11 6 S 1016,4 25 -
12.12.2017 15:00:00 - - - - - - - -
12.12.2017 14:00:00 - - - - - - - -
12.12.2017 13:00:00 18,6 9,3 11 6 S 1015,7 20 0,0
12.12.2017 12:00:00 - - - - - - - -
12.12.2017 11:00:00 - - - - - - - -
12.12.2017 10:00:00 17,1 10,1 8 4 S 1016,6 20 -
12.12.2017 09:00:00 - - - - - - - -
12.12.2017 08:00:00 - - - - - - - -
12.12.2017 07:00:00 11,5 9,6 5 3 S 1015,8 17 0,0
12.12.2017 06:00:00 - - - - - - - -
12.12.2017 05:00:00 - - - - - - - -
12.12.2017 04:00:00 11,7 9,5 11 6 S 1014,5 14 -
12.12.2017 03:00:00 - - - - - - - -
12.12.2017 02:00:00 - - - - - - - -
12.12.2017 01:00:00 14,1 11,0 9 5 S 1013,3 14 0,0
12.12.2017 00:00:00 - - - - - - - -
11.12.2017 23:00:00 - - - - - - - -
11.12.2017 22:00:00 13,3 10,2 8 4 SSE 1013,2 15 -

tt = Température de l'air
td = dewpoint
ff = Vitesse du vent
dd = Direction du vent
ppp = reduced air pressure
vv = visibility
rr = Quantités de précipitations

stations d'obs. à proximité